www.pogodaiklimat.ru

Погода и климат >> Архив погоды >> Россия >> Краснодарский край >> Кореновск


ПОГОДА в Кореновске

  • Прогноз погоды в Кореновске
  • Монитор погоды в Кореновске

АРХИВ ПОГОДЫ в Кореновске

Время (UTC), дата Ветер
(напр.,м/с)
 
Видим.   Явления Облачность Т
(С)
Тd
(С)
f
(%)
Тe
(С)
Тes
(С)
Комфортность P
(гПа)
Po
(гПа)
Тmin
(С)
Tmax
(С)
R
(мм)
R24
(мм)
S
(см)
09 12.03 С 5
{10}
10 км слаб. ливневой дождь 10/10 600 м
[Cb cap]
+6.4 +1.9 73 +2 +2 1011.9 1006.0
12 12.03 СВ 5 10 км {ливн. осадки} 10/3 600 м
[Cb cap Ac As]
+7.4 +0.1 60 +4 +4 1011.4 1005.5
15 12.03 СВ 4 10 км 10/3 1500 м
[Sc Ac As]
+7.3 -0.2 59 +4 +4 1010.4 1004.5 +7.6 0.1
18 12.03 С 3 10 км слаб. ливневой дождь 10/8 600 м
[Cb cap Ac und]
+6.0 +0.8 69 +3 +3 1010.9 1005.0
21 12.03 С 5 10 км слаб. ливневой дождь 10/10 600 м
[Cb cap]
+2.9 +1.6 91 -3 -3 1012.3 1006.4
00 13.03 С 3 10 км слаб. ливневой дождь 10/10 300 м
[Cb cap]
+2.1 +0.9 92 -2 -2 1012.8 1006.8
03 13.03 С 4 10 км слаб. ливневой дождь 10/10 300 м
[Cb cap]
+1.8 +0.8 93 -3 -3 1013.5 1007.4 +1.4 6
06 13.03 СЗ 2 1000 м ливневой снег [диам. отлож. мокр. снега 3 мм] 10/10 200 м
[Cb cap]
+0.2 -0.6 94 -4 -4 1014.7 1008.6 +0.1
09 13.03 С 2 2000 м ливневой снег [диам. отлож. мокр. снега 3 мм] 10/10 200 м
[Cb cap]
+0.6 -0.2 94 -3 -3 1014.9 1008.9
12 13.03 СЗ 2 10 км слаб. ливневой дождь 10/10 300 м
[Cb cap]
+2.8 +1.5 91 -0 -0 1015.5 1009.5
15 13.03 С 2 10 км {ливн. осадки} 10/10 600 м
[Cb cap]
+3.8 +1.5 85 +1 +1 1016.7 1010.7 +3.8 9
18 13.03 СВ 1 10 км {ливн. осадки} 10/4 600 м
[Cb cap Ci fib]
-0.6 -1.7 92 -3 -3 1018.1 1012.0
21 13.03 штиль 0 2000 м дымка 3/3 1500 м
[Sc]
-2.2 -3.0 94 -3 -3 1018.9 1012.8
00 14.03 В 1 2000 м дымка ясно -4.4 -5.3 93 -7 -7 1019.6 1013.4
03 14.03 В 2 200 м переохл. туман [диам. изморози 4 мм] ?/? -3.2 -4.0 94 -7 -7 1020.2 1014.0 -4.4
06 14.03 В 3 1000 м в посл. час туман [диам. изморози 4 мм] 10/10 200 м
[St]
-0.2 -0.9 95 -5 -5 1019.6 1013.6
09 14.03 В 5 10 км 9/9 600 м
[St]
+5.6 +0.9 72 +1 +2 1017.6 1011.7
12 14.03 В 6-10
{10}
10 км 9/9 600 м
[Cb cap]
+6.4 +0.3 65 +2 +2 1016.2 1010.3
15 14.03 В 4
{11}
10 км 9/9 600 м
[Cb cap]
+6.1 +0.9 69 +3 +3 1014.7 1008.8 +6.8
18 14.03 В 4 10 км 10/10 600 м
[Cb cap]
+5.9 +1.3 72 +2 +2 1013.4 1007.5
21 14.03 В 4 10 км 10/10 600 м
[Cb cap]
+5.4 +0.9 73 +2 +2 1011.3 1005.4
00 15.03 В 3 10 км слаб. ливневой дождь 10/10 600 м
[Cb cap]
+5.0 +1.1 76 +2 +2 1010.0 1004.1
03 15.03 ЮВ 4 10 км слаб. ливневой дождь 10/10 600 м
[Cb cap]
+4.6 +2.1 84 0 0 1009.8 1003.9 +4.6 0.0
06 15.03 В 3 10 км слаб. ливневой дождь 10/10 600 м
[Cb cap]
+4.5 +2.2 85 +1 +1 1009.4 1003.5 +4.3
09 15.03 ЮВ 2 10 км {ливн. осадки} 10/8 600 м
[Cb cap Ac und]
+7.3 +2.9 74 +5 +6 1009.4 1003.6
12 15.03 ЮВ 3 10 км {ливн. осадки} 10/8 600 м
[Cb cap Ac und]
+8.2 +3.9 74 +6 +6 1008.6 1002.8
15 15.03 ЮВ 4 10 км 10/10 1000 м
[Sc]
+7.7 +5.0 83 +4 +4 1008.6 1002.7 +8.3 1
18 15.03 В 3 10 км слаб. ливневой дождь 10/10 600 м
[Cb cap]
+6.6 +2.9 77 +4 +4 1008.5 1002.6
21 15.03 СВ 1 10 км слаб. ливневой дождь н/о +5.5 +4.1 91 +4 +4 1008.6 1002.7
00 16.03 штиль 0 10 км слаб. ливневой дождь 10/10 300 м
[Cb cap]
+5.4 +4.3 93 +4 +4 1008.5 1002.6
03 16.03 З 2 4000 м дымка {ливн. осадки} 10/10 300 м
[St]
+5.6 +4.8 95 +3 +3 1009.4 1003.5 +5.2 1
06 16.03 З 2 10 км {ливн. осадки} 10/6 600 м
[Cb cap Ac trans Ci fib]
+5.8 +3.3 84 +3 +4 1009.7 1003.8
09 16.03 З 2 10 км 10/4 600 м
[Cb cap Ac trans Ci fib]
+8.6 +2.2 64 +7 +10 1009.5 1003.7
12 16.03 З 2 10 км 10/8 600 м
[Cb cap Ac und]
+8.4 +2.4 66 +7 +7 1009.1 1003.2
15 16.03 ЮЗ 2 10 км 10/8 600 м
[Cb cap Ac und]
+8.4 +2.4 66 +7 +7 1009.4 1003.6 +9.1
18 16.03 Ю 3 10 км 9/6 1500 м
[Sc Ac trans]
+5.7 +2.1 78 +3 +3 1010.2 1004.3
21 16.03 ЮЗ 2 10 км в посл. час ливневой дождь 9/8 600 м
[Cb cap Ac trans]
+6.6 +3.2 79 +4 +4 1009.9 1004.0
00 17.03 Ю 3 10 км {ливн. осадки} 10/8 600 м
[Cb cap Ac und]
+5.7 +1.6 75 +3 +3 1008.2 1002.3
03 17.03 Ю 3 10 км 10/3 600 м
[Cb cap Ac und]
+6.0 +2.6 79 +3 +3 1008.2 1002.3 +5.6 0.0
06 17.03 ЮВ 5 10 км 10/8 600 м
[Cb cap Ac As]
+6.4 +3.4 81 +2 +2 1009.5 1003.6 +5.3
09 17.03 ЮВ 4
{10}
10 км {ливн. осадки} 10/6 600 м
[Cb cap Ac As]
+8.0 +2.9 70 +5 +6 1010.0 1004.1
12 17.03 В 4 10 км слаб. ливневой дождь 9/8 600 м
[Cb cap Ac trans]
+7.5 +3.3 75 +4 +5 1011.0 1005.1
15 17.03 Ю 1 10 км в посл. час ливневой дождь 9/6 600 м
[Cb cap Ac trans]
+6.6 +4.6 87 +6 +6 1012.5 1006.6 +8.5 3
18 17.03 ЮЗ 3 10 км в посл. час ливневой дождь 10/10 600 м
[Cb cap]
+5.6 +3.9 89 +2 +2 1015.5 1009.6
21 17.03 З 3 10 км {ливн. осадки} 10/10 600 м
[Cb cap]
+4.8 +2.9 87 +1 +1 1017.4 1011.4
00 18.03 З 1 10 км {ливн. осадки} 10/10 600 м
[Cb cap]
+4.7 +3.2 90 +3 +3 1018.9 1012.9
03 18.03 ЮЗ 1 10 км {ливн. осадки} 10/10 600 м
[Cb cap]
+4.4 +3.0 91 +3 +3 1020.2 1014.2 +4.4 0.1
06 18.03 ЮЗ 1 10 км {ливн. осадки} 8/6 600 м
[Cb cap]
+5.7 +3.4 85 +5 +6 1022.3 1016.3 +4.4
09 18.03 З 2 10 км 10/8 600 м
[Cb cap Ac As]
+7.5 +3.4 75 +6 +6 1023.3 1017.3
12 18.03 С 1 10 км 9/9 600 м
[Cb cap]
+9.0 +3.7 69 +9 +9 1023.6 1017.7
15 18.03 СВ 1 10 км 4/4 600 м
[Cb cap]
+9.5 +3.3 65 +9 +9 1024.0 1018.1 +10.5
18 18.03 СВ 2 10 км 8/0
[Ci fib]
+4.7 +2.7 87 +2 +2 1025.1 1019.1
21 18.03 В 2 4000 м дымка 3/0
[Ci fib]
+4.5 +3.1 91 +2 +2 1025.3 1019.3
00 19.03 В 3 10 км ясно +4.2 +1.6 83 +1 +1 1024.9 1018.8
03 19.03 СВ 2 10 км ясно +1.0 -0.5 90 -3 -3 1025.4 1019.3 +1.0
06 19.03 В 3 10 км 1/0
[Ci fib]
+6.8 +2.6 75 +4 +8 1025.8 1019.8

 

Местоположение метеостанции Кореновск (Краснодарский край, Россия): широта 45.47 долгота 39.48 высота над уровнем моря 48 м.

В архиве по умолчанию представлена погода в Кореновске за последнюю неделю. Архивные данные за месяц целиком и за предыдущие месяцы, начиная с января 2011 года, Вы можете получить, выбрав интересующий диапазон дат из раскрывающегося списка и нажав кнопку "Ввод!".


*Определитесь, кто Вы:
робот инопланетянин человек

Внимание! Время в таблицах - всемирное. Для получения местного времени необходимо прибавить поправку, которая равна 3 ч.

Смотрите также архив погоды в соседних городах и на ближайших метеорологических станциях:

Погода в Усть-Лабинске (Краснодарский край, Россия) (33 км)
Погода в Тимашевске (Краснодарский край, Россия) (46 км)
Погода в Краснодаре (Краснодарский край, Россия) (59 км)
Погода в Тихорецке (Краснодарский край, Россия) (63 км)
Погода в Каневской (Краснодарский край, Россия) (78 км)
Погода в Сосыке (Краснодарский край, Россия) (78 км)
Погода в Кропоткине (Краснодарский край, Россия) (85 км)
Погода в Белореченске (Краснодарский край, Россия) (87 км)
Погода в Дондуковской (Адыгея, Россия) (96 км)
Погода в Горячем Ключе (Краснодарский край, Россия) (98 км)

Пояснения к столбцам:

Ветер - указаны скорость ветра в м/с - средняя за 10 мин, порывы в срок и между сроками (в фигурных скобках) и направление, откуда дует ветер: С - северный, СВ - северо-восточный, В - восточный, ЮВ - юго-восточный, Ю - южный, ЮЗ - юго-западный, З - западный, СЗ - северо-западный.
Видимость - горизонтальная дальность видимости в метрах или километрах. При видимости от 1 до 10 км при отсутствии осадков обычно наблюдается дымка, при ухудшении видимости до 1 км и менее - туман. В сухую погоду видимость может ухудшаться дымом, пылью или мглою.
Явления - указаны атмосферные явления, наблюдавшиеся в срок или в последний час перед сроком; фигурными скобками обозначены явления, наблюдавшиеся между сроками (за 1-3 часа до срока); квадратными скобками обозначены град или гололедные отложения с указанием их диаметра в мм.
Облачность - указаны через наклонную черту общая и нижняя облачность в баллах и высота нижней границы облаков в метрах; квадратными скобками обозначены формы облаков: Ci - перистые, Cs - перисто-слоистые, Cc - перисто-кучевые, Ac - высококучевые, As - высокослоистые, Sc - слоисто-кучевые, Ns - слоисто-дождевые, Cu - кучевые, Cb - кучево-дождевые. Подробнее классификацию облаков см. в Атласе облаков (PDF).
T - Температура воздуха - температура, измеренная на высоте 2 м над землей.
Td - Температура точки росы - температура, при понижении до которой содержащийся в воздухе водяной пар достигнет насыщения.
f - Относительная влажность воздуха - влажноcть воздуха, измеренная на высоте 2 м над землей.
Te - Эффективная температура - температура, которую ощущает одетый по сезону человек в тени. Характеристика душности погоды. При расчете учитывается влияние влажности воздуха и скорости ветра на теплоощущения человека.
Tes - Эффективная температура на солнце - температура, которую ощущает человек, с поправкой на солнечный нагрев. Характеристика знойности погоды. Зависит от высоты солнца над горизонтом, облачности и скорости ветра. Ночью, в пасмурную погоду, а также при ветре 12 м/с и более поправка равна нулю.
P - Атмосферное давление - приведенное к уровню моря атмосферное давление.
Po - Атмосферное давление - измеренное на уровне метеостанции атмосферное давление.
Tmin - Минимальная температура - минимум температуры воздуха на высоте 2 м над землей.
Tmax - Максимальная температура - максимум температуры воздуха на высоте 2 м над землей.
R - Количество осадков - Количество выпавших осадков за период времени, мм. При наведении курсора мыши на число - период времени, за который выпало указанное количество осадков.
R24 - Количество осадков - Количество выпавших осадков за 24 часа, мм.
S - Снежный покров - Высота снежного покрова, см. При наведении курсора мыши на число - состояние снежного покрова и степень покрытия местности в баллах.